Weather History for Seldovia, AK

Change the Weather History Date:

Friday, October 25, 2013

  Actual Average (PAHO) Record (PAHO)
Temperature  
Mean Temperature 42 °F -  
Max Temperature 48 °F 40 °F 50 °F (2013)
Min Temperature 35 °F 26 °F 10 °F (1966)
Degree Days  
Heating Degree Days 23    
Moisture  
Dew Point 37 °F    
Average Humidity 88    
Maximum Humidity 97    
Minimum Humidity 63    
Precipitation  
Precipitation 0.00 in - - ()
Sea Level Pressure  
Sea Level Pressure 29.92 in    
Wind  
Wind Speed 3 mph (South)    
Max Wind Speed 9 mph    
Max Gust Speed 17 mph    
Visibility 9 miles    
Events      
Averages and records for this station are not official NWS values.
T = Trace of Precipitation, MM = Missing Value Source: NWS Daily Summary

Daily Weather History Graph

Daily Weather History Graph

Search for Another Location

Airport:

Trip Planner

Search our weather history database for the weather conditions in past years. The results will help you decide how hot, cold, wet, or windy it might be!

Date:

Astronomy

Oct. 25, 2013 Rise Set
Actual Time 9:10 AM AKDT 6:30 PM AKDT
Civil Twilight 8:27 AM AKDT 7:13 PM AKDT
Nautical Twilight 7:39 AM AKDT 8:00 PM AKDT
Astronomical Twilight 6:52 AM AKDT 8:48 PM AKDT
Moon 11:39 PM AKDT (10/25) 3:20 PM AKDT (10/25)
Length of Visible Light 10h 45m
Length of Day
9h 19m
Waning Gibbous, 61% of the Moon is Illuminated
Oct 25
Waning Gibbous
Oct 26
Last Quarter
Nov 3
New
Nov 9
First Quarter
Nov 17
Full

Hourly Weather History & Observations

Time (AKDT) Temp. Windchill Dew Point Humidity Pressure Visibility Wind Dir Wind Speed Gust Speed Precip Events Conditions
12:53 AM 44.1 °F 39.0 °F 39.0 °F 82% 29.70 in 10.0 mi South 9.2 mph - N/A   Clear
1:53 AM 43.0 °F 38.8 °F 37.9 °F 82% 29.71 in 10.0 mi South 6.9 mph - N/A   Clear
2:53 AM 39.0 °F - 36.0 °F 89% 29.74 in 10.0 mi Calm Calm - N/A   Partly Cloudy
3:53 AM 37.0 °F - 35.1 °F 93% 29.75 in 9.0 mi Calm Calm - N/A   Partly Cloudy
4:53 AM 36.0 °F 33.3 °F 35.1 °F 97% 29.78 in 8.0 mi SSW 3.5 mph - N/A   Scattered Clouds
5:53 AM 36.0 °F - 34.0 °F 93% 29.79 in 10.0 mi Calm Calm - N/A   Clear
6:53 AM 37.9 °F 35.5 °F 36.0 °F 93% 29.81 in 10.0 mi NNE 3.5 mph - N/A   Clear
7:53 AM 37.0 °F - 35.1 °F 93% 29.82 in 10.0 mi Calm Calm - N/A   Clear
8:53 AM 36.0 °F - 35.1 °F 97% 29.84 in 10.0 mi Calm Calm - N/A   Clear
9:53 AM 36.0 °F - 34.0 °F 93% 29.86 in 5.0 mi Calm Calm - N/A   Clear
10:53 AM 37.9 °F - 37.0 °F 97% 29.89 in 8.0 mi Calm Calm - N/A   Overcast
11:53 AM 41.0 °F - 39.0 °F 93% 29.91 in 10.0 mi Calm Calm - N/A   Mostly Cloudy
12:53 PM 45.0 °F - 42.1 °F 90% 29.92 in 9.0 mi Calm Calm - N/A   Clear
1:53 PM 48.0 °F - 42.1 °F 80% 29.94 in 10.0 mi Calm Calm - N/A   Partly Cloudy
2:53 PM 48.0 °F - 41.0 °F 77% 29.95 in 10.0 mi South 3.5 mph - N/A   Overcast
3:53 PM 48.0 °F - 42.1 °F 80% 29.96 in 10.0 mi Calm Calm - N/A   Overcast
4:53 PM 46.9 °F - 42.1 °F 83% 29.99 in 10.0 mi South 6.9 mph - N/A   Mostly Cloudy
5:53 PM 48.0 °F - 36.0 °F 63% 30.01 in 10.0 mi SSE 8.1 mph 17.3 mph N/A   Overcast
6:53 PM 42.1 °F 40.2 °F 37.0 °F 82% 30.03 in 10.0 mi SSW 3.5 mph - N/A   Partly Cloudy
7:53 PM 42.1 °F - 36.0 °F 79% 30.06 in 10.0 mi Calm Calm - N/A   Scattered Clouds
8:53 PM 37.9 °F - 36.0 °F 93% 30.09 in 10.0 mi Calm Calm - N/A   Clear
9:53 PM 37.0 °F - 34.0 °F 89% 30.12 in 7.0 mi Calm Calm - N/A   Clear
10:53 PM 36.0 °F - 34.0 °F 93% 30.16 in 10.0 mi Calm Calm - N/A   Clear
11:53 PM 35.1 °F 32.2 °F 33.1 °F 92% 30.18 in 8.0 mi South 3.5 mph - N/A   Clear